Wind_Speed
55 61 69 74 77 79 78 78 76 81 87 87 90 93 96 100 99 103 107 110 115 117 116 114 105 109 107 104 101 103 103 107 109 107 107 107 106 106 107 110 110 108 109 112
36 47 58 66 69 73 74 71 75 80 83 82 85 88 90 92 95 95 98 104 107 117 119 119 121 121 120 120 118 118 117 112 111 112 113 114 113 115 115 115 112 111 109 111
28 41 47 53 60 67 70 69 70 71 74 76 78 82 88 90 92 95 97 100 102 104 107 110 113 116 118 122 124 120 116 109 109 113 115 113 111 106 109 114 111 111 116 116
12 25 37 45 50 59 63 66 67 66 65 66 69 73 78 84 86 88 92 94 95 100 102 103 103 105 106 105 108 108 109 107 108 111 112 112 112 113 111 111 114 111 112 113
12 10 25 34 42 51 56 61 62 62 63 65 63 66 68 73 78 82 86 91 93 93 93 93 92 94 92 93 95 104 105 102 100 104 106 106 107 106 106 108 109 109 106 106
17 16 17 21 28 40 50 53 57 59 63 60 63 65 64 70 73 75 77 79 81 88 91 95 92 91 92 91 90 93 98 97 97 99 100 100 101 103 105 105 106 107 110 103
28 27 28 26 26 28 33 39 46 55 60 59 65 66 67 72 74 75 73 74 76 80 81 83 85 84 87 89 90 90 90 93 97 99 100 101 103 104 104 104 104 103 103 99
33 33 38 38 35 37 35 35 36 38 42 48 51 57 63 69 73 71 75 77 78 81 80 81 83 85 86 86 86 87 88 89 90 93 94 94 93 92 92 92 91 89 88 83
42 42 43 39 43 44 44 42 46 46 45 43 45 45 47 53 56 58 60 65 68 66 69 72 73 74 71 70 70 72 74 76 74 73 74 77 80 81 82 84 86 88 87 81
55 47 50 50 47 46 49 53 54 53 52 50 48 50 54 60 53 56 57 60 57 59 61 62 62 62 64 66 65 65 68 71 71 73 76 77 79 83 88 90 92 93 92 88
62 56 55 57 56 55 55 54 57 60 59 59 58 58 60 60 60 62 63 64 63 63 65 64 63 69 70 70 71 71 72 75 77 77 79 82 81 87 89 91 94 95 96 95
62 60 60 62 62 61 63 64 65 63 58 59 63 63 69 67 71 69 71 71 69 66 65 64 67 74 77 76 75 76 75 78 80 82 83 88 90 92 96 95 96 98 97 95
70 69 67 67 70 70 68 68 68 68 68 65 70 61 72 74 79 77 79 80 78 76 73 73 78 78 83 82 81 83 85 87 89 90 95 97 100 98 102 104 104 102 98 94
78 77 75 73 76 76 74 72 72 73 70 70 71 74 76 75 75 83 86 86 86 85 83 84 88 86 87 88 89 92 94 97 100 101 102 102 105 105 107 112 112 109 105 98
79 80 85 81 81 83 80 80 80 79 74 77 78 79 78 81 81 80 82 85 91 91 93 93 93 93 94 95 97 98 100 103 105 107 108 110 112 114 113 113 108 106 105 102
76 80 83 83 88 88 87 86 88 87 82 79 78 79 84 85 84 83 84 87 88 90 98 100 100 100 102 101 103 105 106 108 111 113 114 114 115 112 109 105 107 103 102 98
66 68 69 70 76 80 81 87 85 84 83 83 82 82 86 83 83 87 89 91 92 90 91 98 106 106 107 107 107 109 111 112 111 113 111 108 106 107 106 102 100 97 89 84
56 58 60 62 62 60 64 71 74 77 79 80 79 81 77 81 81 82 83 86 80 82 87 90 96 102 106 107 106 104 104 102 100 100 99 100 99 98 94 84 78 74 69 68
41 45 47 50 53 57 60 60 62 62 62 62 63 66 67 66 68 71 73 70 73 76 78 80 82 83 86 90 92 90 91 94 91 89 79 78 74 69 61 63 60 59 59 60
32 33 35 38 41 44 48 48 50 52 52 56 57 58 59 60 62 63 64 66 68 68 68 70 72 73 77 81 81 76 71 67 64 59 60 62 59 55 50 51 51 50 49 50
22 23 25 27 29 32 37 37 40 42 45 47 49 50 52 53 55 58 59 58 57 58 59 60 61 64 62 55 51 46 45 47 46 44 44 47 45 41 42 41 41 40 40 41
15 16 18 20 23 26 28 29 32 35 37 38 41 42 44 46 47 46 48 49 50 50 51 51 43 36 36 26 21 23 25 26 27 28 26 28 31 30 30 31 32 32 33 36
15 17 17 19 20 23 25 27 29 30 30 33 35 35 35 37 39 41 40 40 41 36 29 23 22 15 7 12 15 14 14 16 19 20 19 19 20 20 22 24 25 28 28 29
14 14 15 17 18 20 19 22 24 24 28 28 29 29 30 32 33 35 30 21 15 11 9 4 12 21 21 25 29 31 27 23 23 23 23 21 20 20 21 23 25 27 27 28
12 12 14 16 17 17 18 20 23 22 22 24 25 26 28 29 24 10 6 4 5 18 23 24 24 24 27 33 35 35 36 38 36 29 25 19 18 22 21 23 28 29 30 31
12 13 14 14 15 17 18 21 20 24 25 27 25 24 17 5 10 14 16 26 29 28 24 22 22 23 26 33 36 36 37 40 42 40 35 31 36 32 28 25 23 23 26 27
Wind_Direction
218 218 222 222 222 225 227 229 233 235 237 236 236 238 240 243 244 245 245 247 249 251 252 251 249 253 252 250 253 256 256 258 262 262 264 267 268 269 271 274 279 279 278 278
221 222 223 225 226 227 229 231 234 235 237 238 238 241 242 247 245 245 247 248 251 251 250 252 254 254 257 259 262 265 267 265 267 270 270 272 276 275 275 275 276 277 278 277
225 222 224 228 228 229 229 231 234 236 238 240 240 241 244 245 248 246 247 249 249 253 254 255 257 258 260 261 263 266 268 270 271 269 270 273 272 274 274 273 275 277 278 279
240 227 225 226 228 230 230 232 234 236 239 240 239 241 244 247 248 249 248 248 250 251 253 255 256 257 259 262 264 264 265 266 267 269 270 271 273 275 276 276 276 276 276 278
302 256 231 226 227 229 232 234 237 239 240 240 242 241 247 247 248 249 250 251 253 254 254 255 255 256 259 259 260 262 263 264 266 267 270 271 272 273 274 275 275 275 274 276
240 268 264 243 237 234 235 236 238 240 242 242 245 244 245 249 249 249 251 252 256 256 257 257 260 259 259 261 261 262 265 264 264 265 266 268 269 270 271 272 272 273 274 274
247 235 236 243 249 243 241 239 241 244 246 245 246 248 246 250 251 252 252 254 255 257 257 258 260 262 261 261 262 263 263 266 267 266 266 267 268 270 271 272 274 275 276 278
246 251 248 244 240 239 240 248 250 247 246 242 246 250 251 254 256 256 256 254 254 258 258 259 260 262 263 263 264 265 266 268 268 269 271 271 271 271 272 273 273 274 275 277
241 242 247 248 249 248 247 248 250 246 246 245 250 252 252 254 250 252 253 257 257 256 257 259 259 260 262 262 262 263 264 265 265 267 269 272 273 274 275 276 276 277 278 278
245 244 247 246 246 250 251 250 251 251 249 252 253 256 258 258 257 258 258 258 259 260 261 262 264 265 264 264 266 267 268 269 270 271 273 274 278 279 278 279 280 280 280 280
245 244 249 249 248 246 248 249 252 254 255 253 251 252 253 257 261 262 260 259 259 262 267 267 266 266 268 268 268 269 270 271 272 273 274 275 276 278 278 279 280 280 280 280
242 243 242 249 251 250 249 250 249 250 251 254 257 258 259 258 258 259 261 262 262 259 258 262 268 270 271 271 271 271 271 274 274 276 275 276 275 276 277 279 280 280 281 281
246 243 241 245 250 250 249 251 254 254 253 255 256 256 256 257 259 259 261 262 264 266 265 264 264 267 270 273 275 276 277 276 276 276 276 277 278 279 281 282 283 282 281 279
247 246 244 244 245 248 252 251 252 255 255 255 257 254 257 259 258 260 260 262 263 263 265 266 266 267 269 271 272 273 275 276 276 276 279 281 282 283 284 285 286 285 284 281
250 248 249 247 245 248 249 254 256 257 258 256 255 256 257 259 259 260 262 263 263 263 263 265 267 268 269 271 272 272 274 276 279 280 281 281 282 282 282 282 280 279 279 277
255 253 251 250 248 250 251 254 256 257 257 256 256 258 260 259 261 263 264 265 266 266 265 264 266 267 269 270 273 275 276 277 279 280 281 281 282 283 282 279 278 277 275 273
260 257 256 253 251 249 251 252 254 255 256 256 256 257 258 262 263 264 266 267 267 267 268 267 267 268 270 272 274 277 279 280 281 282 282 282 281 280 280 281 280 280 276 272
257 254 251 250 250 250 249 250 251 253 253 255 256 257 259 262 263 265 266 266 269 268 267 269 270 271 273 275 279 281 281 282 282 282 281 281 281 280 281 282 278 276 274 271
253 250 247 246 247 248 250 251 251 252 254 255 256 257 259 262 262 262 264 268 269 271 273 275 278 281 283 282 283 284 284 282 282 281 281 277 278 277 276 274 276 275 273 270
248 246 245 245 245 246 247 246 248 249 250 253 254 257 258 259 262 266 268 268 271 275 279 282 283 286 285 285 287 288 284 281 282 283 279 276 273 271 274 275 274 273 270 268
241 242 242 243 244 245 248 247 248 248 250 252 255 257 261 264 266 269 274 277 278 280 283 286 287 287 290 292 292 294 293 293 291 290 286 282 276 276 274 276 277 275 270 269
230 235 237 238 238 240 246 247 247 247 252 256 257 259 261 264 269 274 277 281 284 288 289 289 289 291 288 297 322 317 311 307 301 295 294 292 285 283 283 281 278 276 271 266
234 240 242 242 242 242 243 249 252 254 257 258 259 262 266 270 273 276 282 286 289 288 283 284 284 286 8 45 42 27 3 349 337 330 317 306 300 298 291 285 282 276 272 266
234 240 245 247 247 248 250 251 253 255 254 259 262 266 271 279 286 290 290 282 275 278 280 209 118 99 88 75 67 56 43 44 34 27 11 353 334 317 305 294 287 283 279 274
231 239 239 240 243 249 247 252 252 262 267 270 275 285 292 292 289 267 222 180 149 131 125 118 108 95 77 65 59 50 38 40 35 24 21 15 359 336 316 301 294 287 282 277
230 238 247 256 260 264 265 269 279 277 279 282 292 290 284 221 156 138 130 126 124 123 117 103 90 76 66 62 56 48 41 35 34 26 16 7 8 358 339 328 316 303 291 282
Height
10629 10640 10651 10658 10667 10673 10684 10691 10702 10710 10715 10727 10734 10740 10745 10745 10756 10766 10771 10770 10770 10777 10782 10782 10787 10784 10789 10794 10795 10791 10799 10798 10794 10805 10802 10802 10803 10803 10805 10804 10803 10804 10808 10798
10629 10636 10642 10651 10660 10668 10676 10687 10688 10693 10700 10713 10722 10725 10730 10729 10738 10747 10749 10752 10753 10755 10759 10765 10764 10767 10773 10772 10776 10774 10773 10780 10782 10779 10781 10781 10781 10781 10782 10782 10781 10779 10780 10778
10626 10630 10639 10647 10653 10658 10665 10673 10678 10685 10690 10699 10708 10714 10711 10714 10717 10727 10734 10734 10740 10735 10741 10746 10749 10753 10755 10758 10758 10756 10757 10760 10756 10754 10758 10760 10759 10758 10760 10759 10756 10753 10753 10754
10626 10629 10632 10637 10643 10649 10657 10662 10666 10674 10680 10688 10692 10698 10701 10701 10706 10709 10713 10713 10718 10720 10721 10726 10733 10733 10740 10744 10739 10741 10737 10739 10737 10737 10737 10736 10737 10735 10735 10732 10733 10735 10732 10732
10627 10627 10629 10634 10637 10643 10650 10653 10659 10667 10671 10673 10681 10686 10687 10687 10689 10691 10693 10696 10701 10703 10705 10707 10712 10719 10724 10722 10716 10711 10721 10724 10719 10714 10716 10715 10715 10715 10712 10710 10708 10711 10716 10718
10624 10626 10627 10629 10633 10637 10639 10644 10649 10653 10653 10665 10666 10669 10675 10669 10671 10674 10677 10682 10684 10683 10685 10691 10697 10695 10697 10702 10702 10697 10697 10702 10701 10697 10697 10696 10696 10693 10692 10691 10688 10687 10690 10707
10617 10621 10622 10625 10627 10629 10630 10633 10637 10640 10644 10653 10648 10654 10659 10654 10654 10658 10665 10667 10667 10666 10667 10670 10675 10678 10675 10678 10681 10683 10681 10676 10675 10678 10678 10678 10677 10675 10672 10669 10668 10668 10667 10680
10610 10613 10613 10615 10618 10620 10622 10624 10627 10629 10631 10636 10637 10643 10641 10642 10640 10646 10646 10648 10650 10650 10655 10657 10657 10654 10656 10659 10660 10660 10661 10661 10658 10652 10655 10656 10654 10653 10651 10648 10646 10648 10650 10663
10598 10601 10603 10608 10609 10611 10613 10618 10615 10618 10621 10627 10627 10628 10627 10622 10625 10630 10631 10631 10637 10639 10636 10639 10636 10638 10642 10641 10640 10642 10641 10641 10644 10643 10638 10634 10632 10634 10631 10630 10627 10625 10630 10643
10582 10591 10590 10593 10598 10600 10601 10601 10602 10606 10611 10615 10618 10618 10614 10607 10622 10618 10618 10616 10623 10624 10622 10621 10623 10625 10624 10624 10625 10626 10625 10624 10624 10624 10620 10619 10618 10611 10608 10609 10607 10606 10609 10619
10568 10576 10578 10577 10582 10585 10586 10588 10588 10589 10596 10599 10603 10604 10602 10601 10603 10602 10604 10603 10605 10606 10607 10610 10611 10606 10607 10607 10608 10609 10608 10605 10603 10604 10602 10600 10603 10590 10588 10586 10586 10584 10584 10591
10554 10559 10562 10560 10564 10568 10569 10571 10572 10574 10582 10583 10586 10595 10588 10591 10583 10587 10586 10586 10589 10596 10597 10597 10593 10587 10585 10587 10589 10588 10589 10585 10583 10582 10581 10577 10578 10575 10564 10564 10564 10562 10560 10562
10536 10539 10543 10548 10546 10545 10551 10554 10558 10561 10565 10574 10568 10582 10564 10571 10565 10574 10569 10569 10573 10577 10582 10582 10577 10576 10568 10569 10569 10565 10562 10561 10559 10558 10552 10549 10545 10548 10537 10534 10533 10532 10534 10536
10512 10518 10522 10529 10528 10526 10531 10537 10539 10541 10550 10555 10555 10553 10549 10554 10553 10549 10554 10556 10557 10558 10561 10560 10555 10557 10555 10553 10550 10544 10540 10533 10529 10529 10526 10523 10515 10515 10510 10501 10498 10494 10495 10503
10490 10497 10496 10506 10510 10507 10514 10517 10520 10522 10530 10532 10534 10531 10535 10530 10533 10536 10535 10539 10539 10540 10535 10538 10536 10535 10533 10531 10526 10524 10519 10513 10506 10501 10496 10492 10486 10480 10481 10476 10474 10471 10467 10472
10466 10470 10472 10483 10483 10486 10494 10498 10498 10501 10507 10511 10512 10518 10511 10510 10517 10520 10518 10516 10516 10517 10515 10516 10514 10512 10509 10508 10503 10499 10495 10489 10481 10475 10467 10459 10452 10446 10442 10444 10436 10441 10438 10440
10440 10443 10447 10454 10456 10466 10474 10469 10476 10481 10484 10488 10493 10496 10493 10500 10503 10498 10497 10494 10493 10498 10498 10492 10488 10489 10486 10483 10480 10475 10468 10461 10454 10443 10433 10427 10420 10413 10407 10406 10406 10401 10404 10406
10416 10420 10426 10431 10435 10444 10447 10450 10456 10459 10462 10465 10472 10473 10484 10481 10483 10480 10477 10469 10478 10478 10472 10473 10470 10468 10465 10461 10455 10448 10438 10428 10419 10411 10404 10397 10391 10387 10382 10380 10377 10375 10376 10377
10399 10403 10409 10414 10419 10424 10428 10433 10437 10441 10445 10451 10454 10458 10462 10464 10462 10457 10455 10463 10459 10457 10456 10456 10452 10449 10445 10435 10425 10418 10411 10397 10389 10382 10378 10370 10365 10362 10360 10355 10355 10355 10353 10354
10388 10392 10397 10401 10406 10411 10413 10420 10424 10428 10434 10435 10439 10443 10445 10446 10445 10443 10443 10446 10445 10444 10443 10440 10438 10432 10422 10412 10402 10394 10383 10372 10365 10360 10355 10349 10345 10343 10339 10338 10337 10337 10337 10337
10382 10385 10390 10394 10399 10403 10404 10410 10414 10417 10421 10425 10427 10429 10431 10432 10433 10431 10430 10431 10431 10430 10429 10426 10421 10413 10405 10396 10386 10376 10365 10357 10349 10343 10338 10335 10332 10328 10327 10325 10323 10322 10322 10323
10379 10382 10386 10389 10392 10395 10398 10402 10405 10408 10412 10415 10416 10417 10419 10419 10419 10420 10419 10418 10417 10415 10412 10407 10405 10401 10395 10387 10377 10368 10358 10349 10341 10336 10330 10326 10323 10320 10317 10315 10313 10312 10312 10312
10376 10379 10382 10384 10387 10389 10391 10394 10397 10400 10404 10405 10405 10407 10409 10409 10409 10409 10409 10407 10404 10403 10401 10399 10398 10394 10389 10381 10374 10367 10358 10350 10342 10335 10329 10323 10318 10314 10311 10307 10304 10302 10301 10300
10373 10375 10377 10379 10382 10384 10387 10389 10391 10393 10393 10396 10398 10399 10400 10400 10399 10398 10397 10396 10397 10397 10398 10398 10396 10391 10387 10382 10374 10368 10361 10352 10344 10336 10329 10322 10316 10311 10306 10302 10298 10296 10293 10292
10371 10373 10375 10376 10378 10380 10383 10384 10384 10386 10387 10388 10389 10390 10390 10389 10388 10388 10391 10394 10396 10399 10401 10400 10396 10392 10387 10381 10375 10369 10363 10353 10344 10336 10328 10321 10314 10309 10303 10296 10290 10286 10282 10282
10369 10370 10372 10374 10375 10376 10377 10377 10378 10378 10379 10379 10381 10381 10381 10383 10385 10389 10392 10396 10400 10402 10403 10401 10397 10393 10388 10382 10376 10370 10364 10356 10346 10339 10328 10320 10312 10304 10296 10288 10282 10277 10273 10271